[[[{"header":{"parameterUnit":"kt","parameterCategory":2,"dx":1,"dy":1,"la1":30.253999710083008,"la2":30.299108505249023,"lo1":-89.0895004272461,"lo2":-89.04439544677734,"nx":28,"ny":28,"refTime":"2022-09-22T21:00:00:Z","depth":0,"parameterNumber":1,"parameterNumberName":"U-component_of_WINDS"},"data":[2.61,2.6237,2.6194,2.6333,2.6318,2.6407,2.6426,2.6446,2.6451,2.6555,2.6608,2.658,2.6571,2.6626,2.6683,2.667,2.67,2.6782,2.6754,2.642,2.6372,2.6325,2.629,2.6788,2.6788,2.7107,2.711,2.7112,2.587,2.5857,2.5915,2.5943,2.5995,2.5891,2.5906,2.5957,2.6039,2.6046,2.6093,2.6181,2.6246,2.6206,2.6262,2.633,2.6286,2.6349,2.6346,2.6348,2.5988,2.5951,2.6385,2.6385,2.6385,2.6384,2.6384,2.6384,2.5442,2.5525,2.5514,2.5577,2.5578,2.5598,2.5671,2.5632,2.569,2.5738,2.5674,2.5767,2.5766,2.5809,2.5813,2.5887,2.581,2.5866,2.5881,2.5898,2.5926,2.5484,2.5893,2.5892,2.5891,2.5889,2.5888,0,2.5115,2.5073,2.5123,2.5163,2.5205,2.5231,2.5248,2.5291,2.5184,2.5237,2.531,2.5345,2.5415,2.5481,2.5521,2.5511,2.5412,2.5393,2.5434,2.547,2.55,2.5493,2.4916,2.5383,2.5378,2.5375,2.5372,2.5371,2.4685,2.4784,2.4748,2.4791,2.4786,2.4855,2.4888,2.4784,2.4824,2.483,2.4909,2.4971,2.5015,2.5141,2.5095,2.5147,2.51,2.5284,2.5107,2.5139,2.5111,2.5108,2.5121,2.5322,2.5329,2.5334,2.5338,0,2.4449,2.4371,2.4508,2.4461,2.4453,2.4563,2.4525,2.4603,2.4553,2.4655,2.4673,2.4597,2.467,2.4592,2.4659,2.4617,2.4809,2.4757,2.4811,2.4798,2.4961,2.4949,2.5486,2.5554,2.503,2.5035,2.5039,0,2.4054,2.4186,2.4063,2.4146,2.4292,2.4181,2.4329,2.43,2.4291,2.437,2.4237,2.4315,2.42,2.4268,2.4205,2.4346,2.4356,2.4334,2.4317,2.4349,2.4353,2.4373,2.4352,2.4265,2.4262,2.426,2.4258,0,2.3696,2.378,2.3914,2.3921,2.3882,2.3949,2.3937,2.3923,2.3955,2.3983,2.4004,2.4045,2.407,2.4106,2.4025,2.3909,2.4192,2.4015,2.4171,2.4174,2.424,2.4238,2.473,2.4254,2.4253,2.4253,2.4252,0,2.3365,2.339,2.3594,2.3559,2.3585,2.3673,2.3704,2.376,2.3756,2.372,2.3741,2.3643,2.3753,2.3585,2.3738,2.361,2.3644,2.363,2.3639,2.3648,2.3463,2.3758,2.4229,2.4278,2.3654,2.3649,2.3644,0,2.298,2.3161,2.3064,2.326,2.3332,2.3178,2.3273,2.327,2.323,2.3288,2.3242,2.3309,2.3166,2.3176,2.3261,2.3219,2.3385,2.3193,2.3289,2.3294,2.3301,2.3731,2.3824,2.4133,2.3579,2.3586,2.3591,0,2.2671,2.2615,2.2657,2.266,2.2633,2.2692,2.2801,2.2839,2.2884,2.2892,2.2984,2.3072,2.297,2.2986,2.2908,2.3002,2.327,2.2879,2.2877,2.2958,2.3536,2.3625,2.3677,2.3198,2.3206,2.3212,2.3539,0,2.22,2.2276,2.2381,2.2387,2.2418,2.2532,2.2439,2.2485,2.2407,2.2359,2.2489,2.2462,2.2503,2.2536,2.246,2.2697,2.2645,2.2533,2.2365,2.2647,2.2753,2.2796,2.2216,2.221,2.2205,2.2202,0,0,2.1855,2.196,2.1846,2.1943,2.1963,2.1796,2.1928,2.1927,2.1929,2.1948,2.1853,2.1974,2.1956,2.2124,2.2204,2.2219,2.2255,2.2158,2.2512,2.2547,2.2579,2.2694,2.274,2.2193,2.2192,2.219,2.2189,0,2.1663,2.1641,2.1768,2.1761,2.1745,2.1685,2.1717,2.1673,2.1647,2.1769,2.1633,2.1699,2.1795,2.1797,2.181,2.2135,2.203,2.2153,2.2361,2.2468,2.251,2.2546,2.2668,2.2712,2.2177,2.2178,2.2178,0,2.1346,2.1311,2.136,2.1388,2.1376,2.1452,2.1252,2.1338,2.1395,2.1208,2.1332,2.1305,2.1296,2.1463,2.1535,2.145,2.1831,2.1691,2.1717,2.1725,2.1824,2.1874,2.1918,2.1338,2.1336,2.1333,0,0,2.1193,2.1259,2.1187,2.1339,2.1342,2.1252,2.1281,2.1204,2.1197,2.1195,2.1156,2.1156,2.1211,2.125,2.1296,2.1491,2.1484,2.1591,2.1631,2.1663,2.1689,2.1797,2.1846,2.1324,2.1323,2.1323,0,0,2.112,2.1041,2.096,2.1124,2.1122,2.1061,2.116,2.1061,2.1091,2.1068,2.0943,2.0938,2.1091,2.1069,2.0951,2.1236,2.107,2.1096,2.1244,2.1293,2.1332,2.1336,2.0744,0,0,0,0,0,2.0874,2.105,2.0978,2.0991,2.1025,2.1101,2.1105,2.1004,2.089,2.0972,2.0924,2.0806,2.0981,2.0874,2.0891,2.1023,2.12,2.1222,2.1242,2.1478,2.153,2.1574,0,0,0,0,0,0,2.0878,2.0894,2.0973,2.0922,2.0928,2.1093,2.0879,2.0857,2.0879,2.0855,2.0819,2.0805,2.0722,2.0859,2.0875,2.1003,2.0738,2.1208,2.1227,2.1244,2.1496,2.1539,2.1575,0,0,0,0,0,2.0881,2.0893,2.0972,2.0918,2.0924,2.0833,2.0872,2.0851,2.0867,2.0791,2.0773,2.0789,2.0728,2.0735,2.0868,2.0999,2.0726,2.0733,2.1221,2.1235,2.1248,2.1517,0,0,0,0,0,0,2.0883,2.0876,2.0971,2.0969,2.0842,2.0821,2.0814,2.0847,2.0799,2.0783,2.0754,2.0736,2.0735,2.0739,2.0745,2.1003,2.0716,2.0723,2.0727,2.1232,2.1243,2.1253,0,0,0,0,0,0,2.0868,2.0876,2.097,2.088,2.0866,2.0812,2.0805,2.0902,2.0801,2.0764,2.0747,2.0746,2.0727,2.0743,2.0747,2.0902,2.0709,2.0715,2.0719,2.0722,2.1241,2.125,0,0,0,0,0,0,2.087,2.0876,2.0879,2.087,2.0857,2.0829,2.0895,2.0936,2.0721,2.0769,2.0699,2.0689,2.0734,2.0736,2.0749,2.0903,2.0902,2.0709,2.0713,2.0716,2.0718,0,0,0,0,0,0,0,2.0871,2.0852,2.0982,2.0861,2.085,2.0952,2.0952,2.0951,2.0719,2.071,2.0702,2.0694,2.0672,2.0679,2.0686,2.0904,0,0,2.0708,2.0711,0,0,0,0,0,0,0,0,2.0847,2.0851,2.0982,2.0982,2.0981,2.0952,2.0952,2.0951,2.0718,2.0711,2.0704,2.0697,2.0674,2.068,2.0686,0,0,0,0,0,0,0,0,0,0,0,0,0,0,0,2.0982,2.0982,0,2.0952,2.0952,2.0951,2.0717,2.0711,2.0705,2.07,2.0676,2.068,2.0685,0,0,0,0,0,0,0,0,0,0,0,0,0,0,0,0,0,0,0,0,0,0,0,0,0,0,0,0,0,0,0,0,0,0,0,0,0,0,0,0,0,0,0,0,0,0,0,0,0,0,0,0,0,0,0,0,0,0,0,0,0,0,0,0,0,0,0,0,0]}],[{"header":{"parameterUnit":"kt","parameterCategory":2,"dx":1,"dy":1,"la1":30.253999710083008,"la2":30.299108505249023,"lo1":-89.0895004272461,"lo2":-89.04439544677734,"nx":28,"ny":28,"refTime":"2022-09-22T21:00:00:Z","depth":0,"parameterNumber":2,"parameterNumberName":"V-component_of_WINDS"},"data":[-6.7711,-6.784,-6.7898,-6.8071,-6.8152,-6.828,-6.8344,-6.8432,-6.8517,-6.8675,-6.8776,-6.8845,-6.8951,-6.9084,-6.9195,-6.9223,-6.9266,-6.927,-6.9302,-6.9233,-6.9227,-6.9222,-6.9195,-6.9279,-6.9279,-6.9365,-6.9366,-6.9367,-6.7656,-6.7738,-6.7847,-6.7991,-6.8084,-6.8115,-6.8232,-6.8307,-6.842,-6.8525,-6.8628,-6.8771,-6.8891,-6.8997,-6.9121,-6.9182,-6.9202,-6.9211,-6.9207,-6.9223,-6.9151,-6.9123,-6.9192,-6.9192,-6.9192,-6.9192,-6.9192,-6.9192,-6.7571,-6.7646,-6.7767,-6.7886,-6.7974,-6.807,-6.8151,-6.8236,-6.8342,-6.848,-6.8527,-6.8655,-6.877,-6.8948,-6.9021,-6.9122,-6.9122,-6.9148,-6.9155,-6.916,-6.9158,-6.9025,-6.9145,-6.9145,-6.9145,-6.9145,-6.9145,0,-6.7526,-6.757,-6.7678,-6.7803,-6.7893,-6.7995,-6.8098,-6.815,-6.826,-6.8342,-6.8467,-6.8548,-6.8707,-6.883,-6.8958,-6.903,-6.9068,-6.9078,-6.9097,-6.9075,-6.904,-6.9059,-6.894,-6.9074,-6.9073,-6.9073,-6.9073,-6.9073,-6.7443,-6.7524,-6.7679,-6.7747,-6.7818,-6.7926,-6.8003,-6.8093,-6.817,-6.8309,-6.837,-6.8495,-6.8599,-6.8787,-6.8883,-6.9002,-6.9021,-6.9066,-6.9039,-6.9016,-6.9021,-6.9015,-6.9023,-6.9069,-6.9069,-6.907,-6.907,0,-6.7391,-6.7486,-6.7629,-6.7774,-6.7813,-6.7893,-6.8016,-6.8094,-6.8168,-6.8285,-6.8318,-6.8432,-6.8552,-6.8642,-6.8796,-6.8839,-6.8969,-6.8986,-6.8931,-6.8938,-6.8987,-6.8981,-6.9132,-6.9156,-6.9071,-6.9072,-6.9073,0,-6.7357,-6.746,-6.7594,-6.7672,-6.7789,-6.7878,-6.7991,-6.8065,-6.8167,-6.826,-6.832,-6.8405,-6.8507,-6.8606,-6.8669,-6.8792,-6.8821,-6.8861,-6.8876,-6.8855,-6.885,-6.8895,-6.889,-6.8909,-6.8908,-6.8907,-6.8907,0,-6.7264,-6.7457,-6.7585,-6.7644,-6.7808,-6.7866,-6.7936,-6.8051,-6.8124,-6.8233,-6.8282,-6.8402,-6.8468,-6.8559,-6.864,-6.8618,-6.8792,-6.8779,-6.8833,-6.883,-6.8865,-6.8862,-6.8974,-6.8906,-6.8905,-6.8905,-6.8905,0,-6.7251,-6.7362,-6.7534,-6.7672,-6.7718,-6.7802,-6.7928,-6.8021,-6.8137,-6.8183,-6.827,-6.8319,-6.8434,-6.8415,-6.8574,-6.8523,-6.8584,-6.8633,-6.8639,-6.8653,-6.8628,-6.8678,-6.8778,-6.8791,-6.8668,-6.8666,-6.8664,0,-6.7119,-6.7318,-6.7396,-6.7557,-6.7661,-6.7722,-6.7816,-6.7917,-6.7987,-6.8085,-6.8161,-6.8271,-6.8275,-6.8322,-6.839,-6.8472,-6.8538,-6.8466,-6.8602,-6.8606,-6.8569,-6.8662,-6.8654,-6.8746,-6.864,-6.8643,-6.8645,0,-6.7028,-6.7228,-6.7251,-6.7322,-6.7471,-6.7558,-6.7667,-6.7797,-6.7857,-6.7964,-6.8057,-6.8214,-6.8224,-6.83,-6.8352,-6.8418,-6.8496,-6.8419,-6.8423,-6.8429,-6.8636,-6.8628,-6.8643,-6.8517,-6.852,-6.8522,-6.8626,0,-6.6985,-6.7097,-6.7164,-6.7317,-6.7399,-6.7505,-6.7602,-6.7675,-6.7719,-6.779,-6.7928,-6.8033,-6.8163,-6.8204,-6.8247,-6.8368,-6.8361,-6.837,-6.8356,-6.8416,-6.8453,-6.8468,-6.8294,-6.8294,-6.8294,-6.8295,0,0,-6.6834,-6.6997,-6.7079,-6.7189,-6.7263,-6.7324,-6.7428,-6.7507,-6.7664,-6.7713,-6.7707,-6.7942,-6.8028,-6.8185,-6.8211,-6.8264,-6.8294,-6.8269,-6.8387,-6.8397,-6.8406,-6.8444,-6.8458,-6.8295,-6.8295,-6.8295,-6.8295,0,-6.6839,-6.6928,-6.7031,-6.7117,-6.7247,-6.7318,-6.7343,-6.7482,-6.7532,-6.7668,-6.7715,-6.7809,-6.7994,-6.8079,-6.8146,-6.8253,-6.8282,-6.8285,-6.8311,-6.8385,-6.8395,-6.8404,-6.8442,-6.8454,-6.8295,-6.8295,-6.8295,0,-6.6766,-6.687,-6.693,-6.7103,-6.7188,-6.7293,-6.7304,-6.7414,-6.7493,-6.7552,-6.7685,-6.7757,-6.7878,-6.8014,-6.8078,-6.8074,-6.8265,-6.8222,-6.8223,-6.8232,-6.8309,-6.832,-6.833,-6.8195,-6.8194,-6.8193,0,0,-6.6756,-6.6861,-6.7,-6.7111,-6.7161,-6.7268,-6.7333,-6.7384,-6.7492,-6.7535,-6.7628,-6.7731,-6.784,-6.7909,-6.8016,-6.8151,-6.8183,-6.8205,-6.821,-6.8214,-6.8224,-6.8301,-6.8313,-6.819,-6.819,-6.819,0,0,-6.6751,-6.6917,-6.6942,-6.7083,-6.7186,-6.7329,-6.7392,-6.7426,-6.7532,-6.7531,-6.7619,-6.765,-6.7779,-6.7846,-6.7798,-6.8012,-6.7997,-6.801,-6.7963,-6.7971,-6.7976,-6.7956,-6.7822,0,0,0,0,0,-6.6806,-6.6897,-6.6918,-6.6956,-6.7173,-6.7317,-6.7345,-6.7422,-6.741,-6.7458,-6.7541,-6.7568,-6.7839,-6.7798,-6.7834,-6.7886,-6.8154,-6.8161,-6.8167,-6.8139,-6.8145,-6.8151,0,0,0,0,0,0,-6.6822,-6.6868,-6.6916,-6.7061,-6.7111,-6.7315,-6.7311,-6.7334,-6.7406,-6.741,-6.7551,-6.7572,-6.7638,-6.7785,-6.7816,-6.7864,-6.7812,-6.8157,-6.8162,-6.8167,-6.8141,-6.8146,-6.8151,0,0,0,0,0,-6.6834,-6.6872,-6.72,-6.706,-6.7103,-6.7227,-6.7308,-6.7328,-6.7384,-6.7512,-6.7534,-6.7436,-6.7638,-6.7669,-6.7804,-6.7848,-6.7791,-6.7802,-6.816,-6.8165,-6.8168,-6.8143,0,0,0,0,0,0,-6.6844,-6.689,-6.7211,-6.7227,-6.7032,-6.7217,-6.7248,-6.7322,-6.7484,-6.7507,-6.74,-6.7401,-6.7638,-6.7662,-6.7686,-6.7839,-6.7774,-6.7785,-6.7792,-6.8164,-6.8167,-6.817,0,0,0,0,0,0,-6.6871,-6.6903,-6.7219,-6.7179,-6.7191,-6.7207,-6.7235,-6.736,-6.7485,-6.7363,-6.7369,-6.7399,-6.7602,-6.7658,-6.7677,-6.7869,-6.7761,-6.7772,-6.7779,-6.7784,-6.8166,-6.8169,0,0,0,0,0,0,-6.6886,-6.6914,-6.7175,-6.7184,-6.7195,-6.7379,-6.7319,-6.7536,-6.7452,-6.7355,-6.7446,-6.7444,-6.7597,-6.7617,-6.767,-6.7855,-6.7866,-6.7761,-6.7768,-6.7774,-6.7777,0,0,0,0,0,0,0,-6.6898,-6.6692,-6.7117,-6.7189,-6.7198,-6.7374,-6.7378,-6.7382,-6.7451,-6.7449,-6.7447,-6.7445,-6.7698,-6.771,-6.7722,-6.7842,0,0,-6.776,-6.7765,0,0,0,0,0,0,0,0,-6.6682,-6.669,-6.7117,-6.712,-6.7124,-6.7374,-6.7378,-6.7381,-6.7451,-6.7449,-6.7447,-6.7446,-6.7701,-6.7711,-6.7721,0,0,0,0,0,0,0,0,0,0,0,0,0,0,0,-6.7117,-6.712,0,-6.7375,-6.7378,-6.738,-6.7451,-6.7449,-6.7448,-6.7446,-6.7704,-6.7712,-6.772,0,0,0,0,0,0,0,0,0,0,0,0,0,0,0,0,0,0,0,0,0,0,0,0,0,0,0,0,0,0,0,0,0,0,0,0,0,0,0,0,0,0,0,0,0,0,0,0,0,0,0,0,0,0,0,0,0,0,0,0,0,0,0,0,0,0,0,0,0]}]]]